RH
48 39 50 47 46 42 37 43 39 41 41 36 43 42 36 32 32 31 24 41 46 32 59 85 85 88 84 76 71 63 58 59 59 57 58 58 58 59 61 62 63 61 58 54 52 50 48 46 43 42 41 39 38 36 34 32 30 29 29 30 31 30 27 25 24 25 31 34 37 46 59 66 59 61 79 84 78 81 87 92 94 92 94 97 99 100
41 41 52 50 49 46 40 43 42 42 39 33 34 32 33 31 28 27 25 42 42 35 65 87 88 90 83 75 68 59 57 59 59 56 55 54 53 56 58 60 61 61 57 54 54 52 49 47 43 41 40 39 39 38 36 35 32 30 28 30 32 31 30 29 28 26 27 32 36 38 46 61 61 53 63 77 78 75 75 81 90 93 93 92 94 98
44 47 46 50 58 52 42 43 39 34 35 38 33 31 41 37 31 33 31 39 39 37 65 86 89 87 77 71 64 59 60 58 57 56 55 54 52 52 55 59 58 58 58 55 56 55 53 50 45 42 39 38 39 37 36 36 34 32 30 29 30 30 31 31 30 29 27 26 29 32 34 42 51 49 51 60 63 64 67 70 75 84 91 92 91 93
47 46 45 53 50 34 28 35 38 34 35 40 36 37 45 37 38 42 33 36 39 40 64 85 90 86 73 67 62 56 55 54 51 51 52 53 54 53 52 56 56 54 57 55 54 55 55 54 50 46 42 38 38 37 36 36 34 33 32 30 29 30 31 32 32 30 29 26 23 26 27 30 38 41 41 42 39 42 54 63 66 69 78 87 90 90
45 42 51 50 31 24 25 30 40 40 38 44 39 37 43 40 44 45 40 43 41 41 58 69 77 84 78 72 66 57 51 52 50 49 51 51 51 52 49 49 51 51 54 54 52 54 56 56 53 48 44 42 40 39 38 36 36 35 33 31 29 29 30 31 32 32 30 28 25 24 23 26 32 33 33 35 34 33 40 53 63 66 66 73 82 85
44 45 47 34 22 30 29 28 40 43 43 47 37 33 42 47 48 47 47 49 44 41 43 45 60 80 87 81 70 63 60 59 58 55 54 51 49 52 52 51 53 53 54 56 54 55 59 59 55 47 43 43 41 40 41 40 39 37 35 34 31 29 30 31 32 32 32 31 30 29 29 33 37 38 38 40 42 40 38 44 55 62 63 63 67 75
45 45 35 23 25 33 29 28 34 40 46 43 34 36 46 49 47 47 47 49 50 45 38 39 52 72 87 86 74 68 71 68 66 65 61 54 49 51 56 57 60 61 60 61 60 59 61 59 57 50 41 38 37 37 40 41 42 42 39 36 33 30 29 30 32 32 32 32 33 33 34 35 37 40 40 39 40 39 38 38 42 49 55 57 57 61
42 39 26 21 26 28 30 31 30 37 43 37 31 39 47 43 40 45 47 50 51 45 43 41 42 61 81 85 77 69 73 76 73 72 68 60 55 53 56 60 63 66 65 66 65 61 61 58 55 52 42 34 32 32 34 37 39 41 41 39 37 34 32 30 31 32 32 33 34 34 35 35 35 36 36 35 35 36 35 34 36 38 41 47 51 51
42 36 23 22 26 24 27 31 33 36 34 33 36 42 47 41 40 47 44 45 50 48 52 44 34 56 74 75 77 72 73 79 77 78 76 68 64 60 61 63 65 67 67 67 66 62 60 55 47 44 40 34 30 29 29 28 28 32 37 39 39 37 35 33 31 32 32 32 33 34 34 35 35 36 35 34 33 34 34 33 34 36 35 36 40 43
40 41 30 23 23 25 28 28 31 33 32 36 38 37 39 39 44 47 39 51 64 56 56 45 32 51 66 71 80 77 76 81 78 79 77 68 66 64 64 67 67 69 69 66 66 62 56 49 42 38 37 33 30 28 26 24 23 24 28 34 38 38 36 35 33 33 33 32 33 33 33 35 35 36 36 35 35 34 35 34 34 35 36 35 33 36
38 45 45 34 25 24 25 28 31 33 34 35 36 33 29 36 48 50 58 80 75 56 55 43 29 46 68 82 88 81 84 92 86 79 74 68 67 65 66 70 72 74 71 68 66 62 54 45 39 37 37 34 31 29 27 25 24 25 27 29 35 37 35 35 34 34 35 34 33 33 33 33 34 35 36 37 38 37 36 36 36 35 34 34 34 33
36 32 39 42 37 30 26 32 35 38 39 31 32 32 23 32 43 42 63 82 63 54 61 42 27 49 73 85 88 83 83 89 89 84 78 76 74 70 71 72 75 76 73 70 68 64 60 53 45 42 40 37 33 30 27 26 27 30 31 33 36 38 35 34 33 33 34 34 34 34 33 33 33 33 35 36 38 39 39 38 37 37 34 31 32 33
38 27 31 37 36 33 32 36 36 40 41 30 33 41 41 52 49 37 58 72 53 51 55 38 34 55 70 74 79 82 81 81 85 86 83 83 80 75 76 74 75 77 73 72 71 67 66 62 56 50 43 36 32 29 28 29 31 34 35 37 40 40 36 34 34 33 33 33 32 33 33 33 33 32 33 34 36 38 40 40 39 38 38 35 32 32
43 32 30 29 26 30 37 39 35 36 39 34 39 49 61 76 62 47 69 73 52 44 38 32 47 68 73 72 75 79 82 83 85 87 84 85 84 78 77 76 76 77 75 75 75 73 70 63 56 50 40 33 30 29 30 32 35 37 35 34 38 40 37 34 34 33 32 32 31 32 32 33 33 33 33 32 33 35 37 41 41 40 40 39 37 35
43 26 24 24 22 29 35 38 31 31 40 40 40 44 61 79 71 68 83 79 64 55 45 38 51 72 76 74 76 77 83 88 86 87 87 87 87 83 82 81 80 80 78 77 76 73 67 56 48 44 35 30 31 31 32 33 34 36 34 32 35 37 36 35 35 33 33 32 32 32 32 33 33 34 34 33 32 34 35 38 40 42 42 41 41 39
34 17 26 26 24 32 35 36 34 33 36 35 38 47 57 64 71 87 87 73 70 73 76 73 67 72 74 76 84 85 88 93 88 88 90 88 86 83 81 80 78 78 76 74 74 70 60 45 38 37 32 30 31 33 34 32 32 35 35 34 33 34 36 37 37 37 37 36 35 34 33 33 34 34 35 35 34 33 34 37 38 40 42 44 44 43
28 14 30 29 24 36 36 29 30 29 25 28 35 39 43 45 63 88 85 76 83 84 82 75 65 68 70 74 90 95 93 94 90 89 89 85 82 79 76 74 71 72 72 70 70 65 52 39 34 33 29 29 30 32 34 33 33 34 35 36 36 35 37 38 39 39 40 42 42 41 40 38 38 38 37 37 37 36 36 37 38 39 41 43 45 46
38 25 30 28 18 30 41 33 30 33 26 30 36 32 36 45 58 79 89 90 92 87 75 58 52 62 61 65 91 101 97 94 88 86 84 79 77 75 72 67 65 68 69 66 62 53 43 36 34 32 28 30 31 31 34 33 34 35 35 37 36 37 40 40 39 39 38 39 42 44 46 46 45 45 43 41 41 42 41 40 40 40 41 42 44 47
55 36 23 30 24 26 44 39 34 41 33 28 36 38 46 58 64 80 94 88 77 78 82 68 58 62 60 71 94 97 93 92 84 81 80 75 72 70 67 63 64 69 66 58 52 45 39 35 33 31 29 31 32 32 35 35 35 35 35 36 37 39 41 39 39 39 37 37 38 40 43 45 48 50 49 47 46 47 47 45 43 42 43 43 44 46
57 40 17 28 33 25 32 37 38 42 38 38 43 49 63 74 76 83 90 85 77 80 84 74 62 62 70 84 86 79 83 86 80 79 76 72 70 67 65 63 65 68 60 50 46 43 39 35 33 32 31 32 33 33 36 36 36 36 37 39 40 41 42 41 41 40 40 40 39 41 42 43 46 47 47 49 52 54 53 51 51 49 48 47 46 48
51 39 24 29 34 21 19 36 44 36 40 58 63 64 78 84 77 76 78 80 83 87 91 93 78 58 65 82 73 63 72 76 74 77 74 71 71 66 62 62 62 60 53 47 45 42 37 35 33 32 32 33 34 35 37 37 37 38 39 41 43 45 45 44 43 42 43 44 44 44 45 45 45 44 44 49 54 58 60 59 59 58 57 56 54 56
53 44 44 43 36 23 18 31 37 29 37 57 60 61 77 88 83 79 77 80 87 87 89 101 89 54 50 69 65 55 63 69 72 75 74 74 73 64 57 55 55 52 47 46 44 39 36 35 33 32 33 34 35 37 39 39 40 41 42 44 47 49 48 45 45 45 46 47 47 47 48 48 49 48 48 49 53 60 66 67 67 67 67 66 64 62
69 62 54 45 33 21 22 31 35 34 37 41 47 60 76 86 86 84 79 78 88 90 86 96 96 72 64 72 67 62 67 72 75 79 80 76 67 57 51 49 49 47 44 42 39 36 35 34 33 34 35 35 37 39 40 42 44 44 44 49 52 51 51 51 50 48 48 50 50 50 50 50 50 50 51 52 56 61 64 64 65 66 66 67 68 67
69 64 51 48 45 30 26 37 38 36 39 40 50 67 73 70 75 86 83 82 95 97 91 100 97 76 74 84 80 79 82 84 87 87 82 67 51 46 47 46 43 41 38 37 36 35 35 34 35 36 36 37 39 41 43 45 46 45 48 53 55 54 55 55 52 51 51 52 52 52 52 52 52 52 53 56 59 57 54 53 54 56 59 63 67 70
36 47 56 56 49 34 32 46 48 40 40 45 57 73 74 69 80 89 81 85 102 93 84 102 95 61 64 88 92 90 89 85 79 70 60 50 42 42 45 41 38 36 35 36 37 36 36 36 37 37 38 40 41 43 46 46 45 47 52 57 59 58 57 55 52 52 52 53 55 56 56 57 57 57 59 65 66 62 56 53 52 54 58 63 68 70
24 46 70 61 45 38 36 40 42 38 36 41 59 76 76 74 80 79 77 89 100 89 86 100 85 46 47 76 86 81 75 67 57 48 43 42 43 45 43 38 36 37 36 37 39 38 38 39 39 40 41 43 45 47 47 46 49 54 58 62 62 59 56 53 52 54 55 57 59 60 61 62 63 65 70 72 70 66 62 58 57 60 65 68 68 66
55 64 69 55 46 44 37 28 26 31 34 38 55 66 67 75 80 80 91 100 92 88 88 79 66 50 43 50 55 52 50 47 45 44 42 42 44 43 40 38 38 38 38 40 41 41 42 43 43 44 46 47 49 48 46 50 57 61 63 63 60 57 55 54 56 58 60 62 65 67 68 68 70 72 73 71 67 64 63 65 68 70 69 66 63 63
67 63 61 52 38 30 28 25 24 33 38 37 46 53 56 74 86 84 87 82 73 81 74 51 56 65 50 39 39 39 42 45 46 46 44 44 45 42 39 41 42 41 41 42 44 46 48 50 49 49 51 52 50 48 50 57 62 62 60 58 56 55 57 60 64 67 69 71 72 71 71 72 73 73 71 68 68 69 73 75 73 70 67 68 71 75
61 52 64 65 50 41 39 36 36 42 45 44 50 54 55 69 83 81 75 65 65 76 65 44 52 62 49 41 42 41 44 48 47 46 45 45 44 43 43 44 44 45 46 48 49 52 55 56 54 55 54 52 50 52 58 62 60 57 56 56 56 60 65 70 73 74 74 73 72 72 73 72 72 74 74 75 77 79 77 72 69 72 78 82 84 85
61 57 74 72 60 57 53 48 50 50 50 51 53 55 56 61 69 70 66 60 62 69 61 51 57 58 48 45 45 43 45 48 47 46 47 46 45 47 48 47 47 49 51 53 54 58 61 60 57 57 54 50 52 58 62 61 58 57 57 59 63 68 73 74 74 72 71 71 72 73 73 75 78 80 81 81 80 75 70 71 80 88 89 87 86 86
49 58 84 79 62 58 52 46 49 52 58 58 49 47 51 55 60 63 62 62 69 72 66 64 72 69 52 43 45 45 44 46 49 48 47 46 47 50 50 48 51 53 52 57 63 66 66 62 58 55 52 52 56 60 61 60 58 59 61 66 71 74 74 72 70 70 70 72 74 76 79 83 83 81 79 78 74 72 76 87 93 91 86 86 89 88
49 59 79 72 61 60 52 46 49 53 58 59 53 49 50 55 61 61 60 64 69 68 67 74 81 70 50 44 48 46 44 46 49 48 48 47 47 49 50 51 54 54 57 66 73 72 66 60 56 52 52 56 60 62 61 60 60 63 67 72 75 74 73 71 70 71 72 75 80 84 86 82 77 76 77 75 75 83 92 94 89 85 85 89 90 91
63 63 69 63 62 66 56 48 53 51 47 54 60 54 47 53 60 57 56 62 62 59 64 70 65 52 45 51 55 51 48 48 48 48 49 49 47 47 50 53 54 56 65 75 76 70 63 57 53 52 54 59 63 63 62 61 63 67 71 75 76 74 73 73 72 72 76 84 88 86 80 75 75 78 78 78 86 96 96 88 82 83 84 85 86 89
74 66 70 62 60 72 68 53 46 43 46 55 57 48 40 42 49 51 50 52 54 57 61 60 54 50 52 57 57 55 51 48 47 46 45 46 48 50 51 52 55 64 74 76 70 64 59 55 53 54 57 62 65 64 62 62 65 69 74 78 77 76 76 73 73 79 87 91 86 78 74 76 79 82 84 89 94 92 84 78 79 81 82 86 91 93
73 66 75 71 65 75 79 65 49 44 52 54 50 54 51 40 46 58 57 55 59 62 61 60 59 57 56 54 52 52 49 46 46 45 42 43 46 50 53 54 59 69 73 69 64 61 57 54 55 57 61 65 66 65 64 65 67 73 78 79 78 77 76 74 79 89 93 87 77 74 78 82 85 90 95 93 85 78 75 76 79 84 90 95 98 99
75 73 77 77 76 74 72 67 53 42 45 44 47 68 75 60 58 64 57 51 57 63 65 66 63 57 54 52 49 47 47 49 49 46 43 43 44 48 54 58 60 63 63 60 60 59 55 55 58 60 64 67 67 66 66 67 71 79 81 79 78 77 75 79 89 94 88 79 76 79 84 87 92 98 96 85 77 77 80 81 84 91 97 101 101 100
66 72 68 65 72 73 71 73 64 47 43 48 55 69 77 69 62 61 54 44 48 61 67 64 60 56 52 50 49 49 52 57 58 52 45 44 45 48 53 56 57 56 56 57 57 55 54 56 60 63 65 68 68 67 69 71 76 82 83 80 79 78 78 87 95 91 82 78 80 85 88 91 98 101 93 84 83 85 85 86 92 97 100 102 102 100
57 63 58 51 67 78 74 81 86 67 51 57 60 58 64 66 58 60 61 49 44 56 60 55 53 52 48 49 52 54 62 69 66 56 50 49 50 51 54 55 54 54 55 56 55 56 58 61 62 65 68 70 71 70 71 74 80 83 83 81 81 80 83 93 96 88 81 81 85 89 91 95 102 101 94 90 90 90 90 92 96 101 101 102 102 100
59 72 66 52 70 85 74 81 94 74 52 59 60 53 60 62 51 53 59 48 42 49 51 49 50 48 47 51 53 58 72 80 67 50 48 52 53 54 57 57 55 55 56 56 57 61 63 64 65 68 71 73 74 73 74 78 84 85 84 83 83 83 87 95 95 87 82 84 90 91 92 98 103 100 95 94 93 92 93 96 99 102 102 101 102 101
64 81 77 62 72 84 78 84 90 69 55 64 64 61 61 51 46 58 61 47 43 47 48 49 49 46 47 52 58 69 78 77 62 46 43 49 52 54 57 57 57 58 59 61 64 65 64 66 70 74 77 78 77 75 78 84 88 87 85 85 85 86 90 94 93 87 85 89 92 93 96 101 100 96 94 95 94 93 95 100 103 102 102 103 103 102
78 84 82 76 81 86 84 88 84 67 60 64 63 61 54 44 53 65 56 43 44 48 51 53 47 44 49 54 62 69 65 58 53 48 46 51 56 57 56 57 60 63 65 66 66 64 64 70 76 80 81 79 77 77 82 87 89 88 88 88 88 89 90 90 91 90 89 92 94 96 99 98 92 91 93 92 93 96 98 101 104 103 102 103 102 101
76 85 89 88 88 88 90 95 88 67 54 58 60 54 45 48 61 58 45 47 52 49 52 56 48 44 50 56 61 61 54 50 51 52 53 57 60 60 61 64 68 70 68 66 63 64 70 77 81 83 81 79 79 82 86 89 89 89 88 89 91 91 88 89 94 93 90 91 97 100 99 93 88 89 90 89 93 99 100 100 102 103 102 102 101 102
57 68 86 93 84 82 92 100 89 63 48 54 61 56 47 50 54 45 39 48 49 43 48 55 51 50 54 57 59 57 56 57 56 56 60 61 61 65 68 71 74 71 67 65 66 72 79 82 84 83 81 81 83 85 89 90 89 89 89 92 93 89 88 94 98 93 89 93 100 101 96 91 89 87 87 91 96 100 101 102 102 102 102 102 102 103
49 47 66 79 74 75 85 83 69 56 54 53 49 52 53 47 42 38 37 40 41 42 49 53 52 54 56 57 58 58 61 63 61 62 66 66 69 75 76 74 71 67 65 68 74 80 83 83 84 83 82 84 86 87 90 90 88 90 92 92 90 89 94 101 97 91 94 99 100 98 94 92 90 86 88 94 99 101 103 103 102 102 102 101 102 103
47 46 51 56 57 60 59 54 50 54 60 49 31 34 44 41 36 37 36 37 38 39 45 50 51 53 56 58 61 64 67 68 66 67 71 74 78 82 78 72 68 65 68 74 80 84 83 82 83 84 85 87 87 89 92 89 88 92 94 90 89 94 100 100 94 95 100 100 95 93 93 93 89 87 91 98 101 102 102 102 103 103 101 101 102 104
53 52 49 49 53 51 37 34 42 44 45 44 33 28 33 32 31 34 35 37 38 36 41 48 48 50 55 59 63 67 67 68 70 72 75 80 83 81 74 70 68 68 73 80 84 85 83 82 83 85 88 90 88 89 92 89 88 92 93 90 92 99 100 96 96 100 99 95 93 94 94 93 89 89 96 101 101 101 102 102 104 104 102 103 103 103
59 52 47 46 52 51 35 29 35 33 30 36 34 29 30 29 28 30 32 35 38 38 41 46 47 50 55 59 64 68 67 70 75 76 78 83 84 79 74 73 73 73 76 82 85 84 82 83 85 88 91 91 89 89 92 91 88 89 91 93 97 100 97 97 100 100 96 96 99 97 93 91 91 95 101 102 101 102 103 101 102 104 103 103 103 102
53 47 49 52 51 47 36 29 32 35 34 35 33 31 31 30 29 32 33 36 39 41 43 46 50 54 56 58 63 69 71 73 75 76 80 83 82 79 77 76 77 77 80 84 85 84 83 85 87 90 91 91 89 91 94 93 89 89 93 97 99 99 99 100 102 100 99 101 102 97 91 90 94 99 102 102 102 103 102 101 102 104 103 101 102 103
56 47 54 63 57 49 42 33 32 37 37 35 35 35 32 31 33 36 36 39 43 45 47 50 52 53 56 58 62 69 74 74 73 76 82 83 81 80 79 78 79 81 83 85 85 85 86 86 87 90 91 91 89 92 95 94 91 92 96 97 98 100 102 104 103 102 102 102 99 94 90 90 95 101 102 101 102 103 102 102 103 103 102 100 101 103
53 47 55 60 50 44 40 32 31 36 34 28 29 33 35 37 39 41 42 45 48 48 50 53 53 55 58 60 63 70 76 75 74 78 83 84 82 80 79 80 83 84 84 85 87 87 86 86 87 90 91 91 91 94 97 96 92 93 95 96 96 99 101 104 104 101 101 100 96 91 90 93 99 102 100 99 103 103 102 101 100 101 103 102 101 102
43 41 51 50 40 38 34 28 34 41 36 29 25 27 32 36 38 42 44 45 47 49 51 55 59 61 64 65 66 70 76 76 75 79 84 84 81 80 81 83 85 86 86 87 89 89 88 87 88 91 92 92 94 98 99 96 92 91 94 95 95 96 100 104 103 100 100 100 95 91 92 97 101 99 96 96 100 103 102 101 99 98 99 100 101 100
Wind_Speed
3 7 7 5 5 5 7 6 3 2 2 1 0 1 4 6 4 6 7 4 7 8 6 10 11 10 9 9 8 7 9 13 11 10 9 8 7 7 7 7 7 7 8 14 18 20 23 24 25 26 26 28 30 32 34 35 35 35 36 36 36 37 39 41 41 41 39 38 36 37 36 33 33 36 36 37 39 39 39 39 37 33 30 26 21 14
5 9 6 5 3 2 5 5 4 4 4 3 3 3 6 5 9 10 6 2 7 7 4 10 13 11 8 7 6 7 11 11 9 9 8 8 7 6 7 8 7 6 8 14 19 22 24 25 26 27 27 28 29 31 31 32 32 33 34 34 33 34 36 37 37 38 37 34 31 29 29 27 27 30 32 34 38 39 39 40 39 38 34 32 31 26
8 8 5 7 3 2 5 6 7 7 6 5 4 6 6 5 10 9 5 3 6 3 3 9 12 9 6 7 6 7 8 6 5 6 5 5 6 6 6 7 7 7 8 12 15 20 24 24 25 26 27 28 28 28 29 30 30 31 32 32 32 32 33 34 34 35 35 33 30 27 27 25 24 28 29 29 35 39 39 39 39 39 37 35 34 33
6 3 3 4 2 5 7 9 11 8 6 5 5 6 5 6 6 4 7 10 5 1 5 9 9 6 5 5 6 5 4 4 4 5 3 3 4 5 5 5 6 8 8 9 11 17 21 23 24 25 25 27 27 28 29 29 29 29 29 29 30 30 31 31 32 32 33 34 33 30 28 27 24 27 30 31 36 40 40 39 39 39 38 36 35 34
7 2 2 2 7 10 9 10 11 8 6 5 5 6 6 8 5 4 9 12 7 3 6 7 5 3 3 3 3 2 3 4 4 4 4 4 3 3 4 5 6 7 7 8 9 13 18 20 22 23 24 25 26 27 27 28 28 28 28 27 27 28 28 29 29 30 31 33 35 35 34 32 30 31 35 37 39 39 39 38 37 37 36 36 36 35
7 3 1 6 10 11 9 8 8 5 4 4 3 5 6 8 8 8 8 8 6 4 2 4 3 0 1 2 3 2 1 3 3 4 4 4 4 4 4 6 6 5 5 6 8 10 14 17 19 21 22 24 25 26 26 26 27 27 27 26 25 26 26 26 27 28 30 31 33 35 35 33 31 30 32 32 32 32 33 33 32 33 34 35 36 36
4 4 4 9 9 9 9 7 6 5 4 3 4 6 7 7 8 9 7 4 2 2 4 6 4 2 1 3 4 3 2 2 2 2 3 3 4 5 4 4 4 5 5 6 7 10 12 15 16 18 20 22 23 24 25 26 27 26 26 26 24 24 24 24 25 25 27 28 29 30 29 28 27 25 26 26 26 27 28 28 28 29 31 33 34 35
2 6 9 10 8 8 8 5 6 5 4 2 7 8 8 9 9 8 5 1 2 2 3 7 5 3 3 3 4 3 3 2 1 1 2 3 3 4 3 4 4 4 5 5 6 9 12 14 16 17 19 20 21 23 25 26 28 27 27 26 23 22 22 22 23 23 24 25 25 25 25 24 24 23 24 25 26 26 27 27 28 28 29 30 32 34
2 6 9 10 8 6 4 4 6 6 3 4 9 8 7 8 6 5 3 2 1 2 3 7 7 3 4 1 4 4 3 2 2 1 1 1 2 2 3 4 4 4 5 5 6 9 12 15 16 17 18 19 20 22 24 27 29 29 28 26 24 22 20 20 21 21 21 22 22 23 22 22 21 21 21 23 24 25 26 27 27 27 27 29 31 32
2 2 5 7 6 3 4 6 3 6 2 7 9 7 5 5 2 1 2 2 2 4 1 5 8 4 5 1 3 4 4 2 2 2 1 1 2 3 4 5 5 5 5 7 8 11 14 16 17 18 18 19 20 20 24 27 29 29 28 27 25 22 20 18 18 19 19 20 21 21 21 20 20 19 20 21 22 23 24 26 26 26 26 27 29 30
1 1 2 5 3 1 2 4 1 5 4 6 7 7 4 4 4 2 2 2 5 3 3 3 8 5 4 1 2 3 3 2 2 2 2 3 4 4 5 5 6 6 5 6 9 13 17 18 19 19 19 20 20 21 25 28 29 28 27 28 26 23 20 17 17 18 18 18 19 20 20 20 20 19 19 19 19 20 21 23 24 25 25 26 27 28
4 3 1 1 0 1 3 3 2 4 7 6 5 5 4 4 4 4 4 4 5 2 4 4 10 6 4 3 3 4 3 3 3 3 3 4 5 6 6 6 6 6 6 6 7 11 16 18 19 20 19 21 21 23 26 28 28 28 27 28 27 23 20 18 17 18 18 18 18 18 18 19 20 20 19 18 17 17 18 19 21 23 24 26 27 27
3 2 1 1 3 5 5 4 5 5 6 6 4 4 4 4 5 5 5 4 2 4 3 5 9 5 4 4 4 6 5 5 4 4 5 5 6 6 6 7 6 5 6 6 6 9 13 15 18 18 18 21 22 24 26 26 26 25 26 28 26 21 19 19 19 19 19 19 20 19 19 19 20 20 20 20 18 17 16 16 18 20 21 23 25 26
3 4 4 5 4 3 4 3 3 4 4 5 5 4 4 2 4 4 4 4 3 5 4 6 5 3 4 3 5 7 6 6 5 6 6 7 7 8 8 7 7 6 7 7 6 8 12 15 17 17 18 21 23 25 25 25 24 25 27 29 26 20 19 22 23 22 21 21 21 21 21 21 21 20 21 21 21 19 17 16 15 16 17 18 20 23
2 3 3 4 1 1 4 2 1 2 1 3 2 3 4 3 2 0 2 2 4 7 8 7 2 3 4 3 6 6 5 6 5 6 6 7 7 7 7 7 7 7 7 7 6 8 12 14 15 15 17 20 22 22 22 23 25 26 27 28 27 24 23 25 26 26 25 25 25 24 23 24 23 22 22 22 23 22 21 19 17 15 14 15 17 18
3 3 1 2 0 2 3 1 0 2 1 1 1 4 2 2 4 3 3 4 3 6 7 3 1 5 3 3 4 4 4 5 6 7 6 7 8 7 6 7 7 7 6 6 5 8 11 12 13 14 18 21 20 19 20 22 24 25 26 27 26 25 25 25 25 25 26 27 27 26 26 27 27 26 26 25 24 24 23 21 20 19 17 15 15 16
2 3 2 1 2 3 4 1 3 3 1 1 2 1 2 3 5 3 2 3 2 3 4 1 3 5 2 2 3 3 5 6 6 8 7 8 8 7 6 7 7 6 6 5 5 7 9 10 12 14 20 22 19 19 20 22 24 24 25 25 25 26 26 25 25 25 25 25 25 25 26 27 28 28 28 29 28 27 26 24 23 22 21 19 18 17
3 2 4 2 3 1 2 5 6 4 2 3 1 2 1 2 3 4 1 3 3 2 4 2 4 6 3 3 3 4 7 8 8 8 8 7 7 6 7 7 8 7 6 6 6 8 9 10 11 16 21 20 16 17 20 22 24 25 24 24 25 26 26 26 26 26 26 26 25 25 25 25 26 27 28 28 29 29 28 27 26 26 25 24 22 20
4 1 5 2 4 2 1 5 5 5 4 3 1 0 3 2 1 1 2 1 1 3 5 2 4 5 3 4 3 6 10 10 9 8 7 8 7 6 7 8 8 8 6 5 5 6 8 11 12 17 21 18 15 17 19 22 24 24 24 24 25 26 26 27 28 27 27 27 26 26 26 26 27 27 28 29 29 30 29 29 28 28 28 28 26 24
2 3 3 3 4 3 1 3 1 3 4 4 3 3 3 3 2 1 1 2 2 2 4 3 4 5 5 6 5 8 10 10 9 8 7 8 8 7 7 7 7 7 5 5 4 5 9 11 14 18 20 16 14 17 19 21 24 24 24 24 25 26 27 27 27 27 28 27 27 27 26 27 27 28 30 30 30 31 30 30 29 29 30 31 30 28
1 2 2 4 1 1 0 1 3 3 1 1 2 2 2 1 1 1 0 2 3 2 2 3 6 8 6 5 6 9 9 9 9 8 7 7 7 7 7 6 7 6 5 5 4 6 11 13 16 20 17 14 14 16 17 19 22 23 23 25 27 26 25 25 25 25 26 26 26 26 27 27 28 29 30 31 31 31 30 29 27 26 26 27 27 27
1 2 2 3 4 1 2 3 5 5 4 4 3 2 2 2 3 2 2 2 2 3 4 2 6 11 7 5 7 9 7 8 8 7 7 6 7 8 7 6 7 6 5 5 5 8 12 14 18 20 15 12 14 16 17 18 20 21 23 26 25 22 21 23 24 25 25 25 26 27 27 28 28 29 29 30 30 29 27 26 25 24 24 25 25 25
2 3 2 3 4 2 2 2 2 3 4 4 2 3 3 3 5 4 2 3 1 1 2 2 4 10 6 5 7 7 6 6 6 5 6 6 7 8 7 6 6 5 6 6 7 10 12 15 20 18 13 13 15 16 17 19 19 21 25 24 20 18 20 22 24 25 25 24 26 27 28 30 30 30 30 30 28 28 28 29 29 29 29 30 30 29
2 3 2 3 5 3 3 3 3 4 4 3 1 2 3 1 3 5 5 2 1 3 2 1 4 8 6 3 4 3 3 4 4 5 7 7 7 7 6 5 5 5 7 7 8 10 12 17 18 14 12 13 15 16 18 19 20 23 26 22 16 16 20 22 23 25 25 26 27 27 28 29 30 30 30 29 28 30 31 33 34 34 33 33 31 30
0 1 2 3 5 6 5 5 5 5 2 1 2 2 2 3 5 3 2 3 1 5 5 3 6 9 5 2 2 3 4 5 6 6 7 8 8 7 5 5 5 6 8 8 8 9 12 15 14 11 11 14 15 17 19 21 23 25 22 17 15 18 20 21 24 26 27 28 27 27 27 27 28 29 28 26 27 29 30 32 34 35 35 33 32 30
1 1 3 4 1 2 4 4 4 4 2 2 2 3 3 4 5 3 1 2 2 5 6 6 8 12 8 4 4 5 6 7 8 7 8 8 7 6 5 5 6 7 8 9 7 8 10 11 9 9 12 14 15 18 20 22 23 21 17 15 16 20 22 24 26 27 27 27 26 26 27 27 27 25 24 24 26 28 30 31 32 32 31 31 31 32
3 1 2 5 6 6 6 7 5 2 3 5 4 4 5 4 5 4 3 3 4 2 4 9 12 16 20 13 8 9 8 9 10 10 11 8 6 6 6 7 8 8 8 8 7 8 8 7 7 10 13 14 16 19 21 22 20 18 17 18 20 23 25 27 27 26 25 25 25 25 26 26 25 24 25 27 29 30 31 29 28 28 29 30 31 32
5 1 4 6 8 8 8 9 6 3 6 10 9 8 7 6 7 7 7 8 3 2 8 13 10 12 21 19 14 13 11 11 12 12 11 9 6 7 8 8 10 10 9 8 8 8 7 5 7 11 13 15 18 20 21 19 18 18 20 22 24 25 25 25 23 23 23 24 25 26 26 26 27 27 29 30 31 30 29 28 28 29 30 30 29 29
5 3 5 5 7 9 8 9 8 6 8 10 10 11 10 7 9 11 14 13 6 5 15 17 10 12 19 19 17 14 10 12 13 11 10 9 7 8 9 11 11 10 10 9 8 7 5 5 8 12 14 17 19 19 18 16 17 20 22 24 25 25 23 21 21 22 23 25 27 27 28 29 29 30 30 29 28 28 28 30 31 29 27 26 26 27
4 3 2 2 5 9 9 10 10 7 7 9 12 13 12 11 12 13 16 14 11 14 20 20 20 21 20 18 18 14 9 9 9 8 9 10 10 10 10 12 12 11 10 9 7 5 5 7 10 13 15 18 19 17 16 16 19 21 23 24 24 23 21 20 21 24 26 27 28 29 30 30 29 29 28 27 27 28 30 30 27 25 25 26 27 28
1 2 0 4 3 8 8 7 7 5 6 10 15 15 13 12 12 13 15 12 10 14 18 18 18 20 18 14 12 9 6 5 7 9 11 11 10 10 11 12 12 12 10 8 6 5 6 8 11 13 16 17 17 16 16 18 21 22 23 23 22 21 21 22 24 26 28 28 29 29 28 27 27 27 27 28 28 29 27 24 23 25 27 28 27 27
2 1 2 5 2 7 4 2 4 4 5 11 18 19 16 12 9 9 9 8 9 11 13 11 11 15 14 8 5 6 6 8 10 11 11 10 9 10 12 13 12 12 10 7 6 6 6 7 10 14 16 17 16 15 17 20 22 22 23 23 21 20 22 24 26 28 29 29 27 25 24 25 27 28 28 28 27 25 22 22 25 27 28 27 27 26
4 3 1 3 1 6 4 3 3 6 7 9 12 12 12 10 8 8 8 9 11 10 8 8 11 13 10 5 7 10 11 11 12 10 9 10 11 11 12 12 12 11 8 6 6 6 7 10 13 16 17 17 17 16 18 20 22 23 23 22 21 22 24 25 27 28 28 26 23 22 25 27 28 27 27 26 23 21 21 24 27 27 27 28 27 27
4 5 3 3 2 5 5 3 3 3 5 7 5 7 10 9 10 11 11 12 11 9 9 11 13 14 11 9 11 14 13 12 11 10 9 9 10 12 13 13 11 9 7 6 7 8 11 14 16 17 18 19 18 17 18 20 21 23 22 21 22 24 25 28 29 27 23 20 21 25 28 27 27 27 26 22 20 21 24 26 27 27 28 28 27 27
5 4 2 2 2 4 3 4 3 4 7 7 5 4 6 6 8 10 13 14 13 13 14 16 17 17 15 13 12 12 13 12 10 10 11 11 10 11 13 13 10 7 7 8 9 11 14 16 17 19 20 19 18 17 18 20 22 21 20 22 24 24 26 29 27 22 19 20 24 27 26 26 27 25 22 19 21 24 26 27 28 28 27 26 26 27
7 5 2 2 2 2 2 2 1 6 10 10 6 2 3 2 2 3 11 14 13 14 15 17 18 18 15 13 12 11 11 11 9 9 11 12 11 10 10 10 8 8 9 10 12 14 16 17 18 21 22 20 18 18 20 22 21 20 20 22 24 25 27 26 21 18 19 23 26 26 25 26 25 21 19 22 25 26 27 27 28 28 27 26 25 25
7 5 2 2 3 2 1 3 3 7 13 11 4 2 3 3 5 3 6 11 9 10 12 13 15 15 13 12 13 10 7 8 10 8 8 10 10 10 10 9 8 11 13 15 16 17 18 20 22 24 23 20 18 19 21 23 21 20 21 23 23 25 25 22 19 19 22 25 26 25 26 26 22 19 21 25 26 26 27 28 28 27 26 25 24 23
4 3 4 4 2 2 1 4 4 5 7 7 5 3 2 3 6 8 1 10 8 9 11 12 13 13 12 11 10 5 4 8 12 7 5 7 8 7 8 9 11 14 16 17 17 17 19 22 25 25 22 19 19 21 23 23 21 20 22 22 22 23 23 20 20 21 24 26 26 26 26 24 20 20 23 25 25 27 29 28 28 27 26 24 23 23
3 2 4 4 3 1 3 3 3 4 7 7 6 3 3 6 7 7 3 10 7 8 11 11 12 12 11 9 7 2 1 8 13 8 2 5 6 5 6 10 13 15 16 16 17 18 20 23 25 23 19 17 20 24 25 23 21 20 21 22 23 23 22 20 21 23 25 26 26 26 25 23 20 22 24 25 27 29 29 28 27 27 26 25 24 25
2 3 2 4 6 4 4 3 4 6 9 8 6 5 5 5 7 7 5 10 6 7 9 10 11 11 9 8 6 4 4 7 11 11 6 4 5 6 7 10 12 14 15 16 17 20 22 23 20 17 16 19 23 25 25 22 19 19 21 22 23 22 22 22 23 24 26 26 26 25 23 21 21 24 25 26 28 29 29 28 26 26 27 27 25 24
1 1 1 4 6 5 6 5 5 5 8 7 7 9 8 4 7 3 7 8 5 7 8 9 9 9 8 7 6 5 7 9 10 11 10 8 8 9 10 11 11 12 14 16 20 23 24 21 15 14 17 21 25 26 24 20 18 19 21 22 22 22 23 24 25 26 26 26 25 23 21 21 24 26 26 27 29 29 28 27 25 26 26 25 24 22
3 2 2 2 3 4 5 4 4 7 7 4 9 10 8 4 1 6 7 3 5 7 7 7 9 8 7 8 8 8 10 9 9 10 9 7 8 9 10 10 10 11 14 17 20 22 20 17 15 16 20 23 24 24 22 19 19 21 22 22 22 22 24 25 25 25 26 26 23 20 20 23 25 26 27 28 28 27 28 26 25 24 24 22 22 23
5 4 3 3 4 3 1 1 3 7 4 11 15 7 4 5 6 7 4 2 4 6 5 7 9 8 8 9 10 10 10 9 9 9 8 7 7 7 8 9 9 12 15 17 19 17 15 15 17 19 22 22 22 22 20 19 20 22 23 23 22 24 25 25 23 25 27 24 21 19 22 24 25 26 27 28 27 26 26 25 24 23 22 22 22 23
5 6 4 4 4 5 4 6 6 5 6 15 14 7 9 13 11 5 3 4 5 4 4 6 8 8 9 10 11 9 9 9 9 8 7 7 6 6 7 8 9 12 15 16 16 14 13 16 19 21 22 22 21 21 20 19 21 22 23 24 25 26 24 22 23 26 25 21 19 21 24 24 25 27 27 26 24 24 24 24 23 23 22 21 20 20
8 8 4 4 5 5 6 9 6 2 6 13 11 7 9 14 13 8 6 7 7 6 5 6 8 9 9 9 10 8 7 8 8 7 7 7 6 5 6 8 10 13 15 15 14 14 14 17 20 21 22 21 20 20 20 20 21 22 23 25 26 25 22 22 24 24 21 19 21 24 25 25 26 28 26 23 21 22 22 23 22 21 21 19 19 18
6 4 3 2 3 4 9 11 9 7 9 13 13 11 8 9 9 8 8 9 9 9 8 7 9 9 7 7 7 7 7 7 7 7 7 6 6 6 7 9 11 13 14 14 14 14 15 17 19 19 20 20 20 20 20 20 21 22 24 25 25 23 22 23 22 20 19 21 23 24 24 25 27 27 24 21 20 20 21 21 21 21 20 19 19 18
2 4 3 4 2 2 8 10 9 11 12 10 10 12 11 11 11 10 9 10 11 11 9 8 9 8 5 6 7 8 8 7 7 8 7 5 5 6 6 9 11 13 13 14 15 15 16 17 18 18 19 20 21 20 20 21 22 23 24 24 23 22 22 21 19 20 23 23 22 22 23 25 26 25 22 21 20 20 20 20 20 20 20 18 18 18
1 4 4 7 6 6 12 14 10 10 11 8 8 10 10 12 14 12 11 11 11 10 9 7 6 5 5 5 6 8 8 7 7 9 8 5 5 5 6 9 12 13 15 15 15 15 16 17 18 18 19 20 21 21 20 21 23 23 23 22 22 22 21 20 21 23 23 20 19 20 22 23 24 22 21 21 21 21 21 21 20 20 19 18 18 19
4 4 4 3 5 8 14 17 13 12 13 11 11 12 12 12 13 12 10 9 8 9 8 7 6 7 6 6 5 6 8 8 7 8 8 5 4 5 8 11 12 14 16 16 15 15 16 17 19 19 20 21 22 22 21 22 23 23 21 21 22 21 20 22 23 22 20 17 18 20 21 22 21 19 20 23 23 22 21 19 18 20 22 22 20 18
4 5 3 1 4 9 13 13 8 7 11 11 8 9 9 9 9 9 9 8 8 9 8 7 7 7 7 8 7 5 7 9 8 7 7 6 6 7 10 12 13 15 16 16 16 16 16 18 20 20 21 22 22 22 22 23 23 22 22 21 21 21 21 23 23 20 17 15 17 19 20 20 18 17 20 22 23 23 22 20 18 18 20 22 20 17
7 9 6 5 9 13 15 15 7 5 9 13 10 6 4 4 6 8 9 8 9 9 8 7 7 6 6 8 9 8 8 9 9 9 7 6 8 11 12 13 14 15 17 16 16 16 17 19 20 20 21 22 22 22 23 24 24 23 21 20 21 22 23 23 20 17 15 14 17 19 19 17 16 17 20 22 22 22 23 24 23 19 16 17 18 18
Wind_Direction
50 58 43 36 21 25 22 12 37 119 132 24 137 160 314 323 308 295 291 304 20 36 70 86 80 63 49 40 32 26 44 51 44 43 41 34 34 28 25 21 11 8 354 356 6 11 13 15 17 18 19 19 20 20 21 22 22 23 23 22 22 21 22 24 23 22 21 20 18 18 20 19 15 15 19 23 25 24 22 24 27 29 29 27 27 25
49 62 31 340 326 48 40 11 27 67 59 63 91 14 354 353 324 305 279 324 24 40 90 92 78 64 53 49 36 36 52 48 39 46 42 33 34 26 23 16 6 356 350 359 4 6 8 10 12 14 14 15 15 15 17 18 19 20 21 22 21 21 22 24 24 25 25 23 20 18 19 19 17 17 19 21 24 24 22 23 24 26 28 28 27 26
51 59 7 321 282 104 52 30 34 41 38 41 44 10 356 349 327 296 258 1 21 36 107 96 85 78 72 65 50 46 60 59 49 57 52 40 35 24 19 9 1 358 355 359 358 358 1 3 6 9 10 11 11 11 12 13 14 15 17 19 19 20 22 23 23 25 26 26 25 23 21 22 21 20 21 20 23 25 23 22 22 22 24 25 27 26
65 44 342 324 343 63 39 28 30 27 30 37 34 20 341 336 352 297 304 338 352 120 124 110 101 101 96 81 71 65 80 92 78 71 63 51 44 19 359 355 0 1 356 354 353 355 358 359 1 2 3 4 4 5 7 6 7 8 10 13 15 17 19 21 22 23 24 24 25 26 25 25 25 23 23 21 21 23 23 21 21 20 20 21 23 23
67 347 238 22 32 48 38 25 30 28 11 2 26 26 335 325 333 265 298 326 344 60 109 110 102 109 95 85 97 110 108 85 67 60 51 39 35 9 354 2 4 1 354 349 350 352 354 357 358 359 359 358 358 359 359 360 0 0 2 5 8 12 15 17 19 19 20 21 23 24 23 23 23 22 22 20 17 18 20 21 21 21 19 19 20 20
59 331 310 46 32 39 41 27 30 34 1 334 13 16 328 310 306 291 308 331 354 19 37 49 39 332 88 133 169 187 132 74 58 46 41 26 20 17 8 7 358 352 352 344 342 343 345 348 352 357 0 359 356 354 353 352 352 352 353 356 0 5 10 13 15 17 18 20 22 24 24 22 20 18 18 18 13 13 17 18 19 21 21 19 20 20
55 342 36 57 41 36 37 27 15 28 35 347 337 346 324 310 306 307 326 348 5 317 323 26 37 279 251 196 203 183 148 104 85 51 34 24 21 19 7 358 345 337 340 334 330 331 334 336 340 347 354 358 356 353 350 347 345 345 345 348 352 357 3 7 10 12 15 18 21 25 27 26 23 19 15 15 14 13 14 17 19 20 21 21 21 21
50 13 35 43 39 40 32 10 347 1 50 328 317 334 323 315 309 306 322 292 231 282 334 22 21 279 263 203 203 184 162 147 130 57 33 34 15 6 347 332 328 322 320 322 322 321 323 325 327 332 341 348 350 350 350 347 344 340 337 339 342 348 355 1 5 8 11 14 17 20 23 24 25 21 15 12 12 13 13 15 17 19 19 20 21 23
59 44 53 45 34 38 16 325 327 358 39 283 305 315 296 295 287 282 306 258 243 44 357 359 17 319 283 183 171 206 212 194 180 186 22 21 336 320 306 301 303 302 299 300 302 305 310 315 319 323 330 337 343 350 353 351 347 341 335 331 331 337 347 354 359 2 5 8 10 12 14 15 17 17 14 11 10 10 11 12 13 15 16 17 19 22
77 102 109 74 43 21 327 301 336 42 12 276 297 307 288 299 293 255 318 303 27 53 314 343 27 10 296 280 157 211 230 231 217 187 188 272 272 277 280 283 288 289 289 290 291 297 301 306 313 317 322 330 338 348 352 350 345 341 337 330 324 326 337 346 352 355 358 0 1 2 3 5 5 6 6 6 6 6 7 8 9 10 11 12 16 18
354 261 122 77 52 249 289 296 81 70 5 309 325 334 335 351 2 20 16 53 53 23 259 7 23 356 294 269 191 214 216 221 224 200 217 253 258 265 270 274 280 282 283 287 290 293 296 301 307 311 318 327 336 345 346 343 339 339 338 333 324 320 327 337 343 347 349 351 353 352 354 354 353 355 357 357 359 0 2 3 3 5 6 7 11 14
11 20 39 126 274 44 38 0 16 43 21 10 349 340 358 0 3 13 357 41 61 296 256 23 3 328 264 248 230 214 211 192 188 215 235 257 264 267 267 268 273 275 279 284 287 291 294 298 303 309 321 333 339 342 339 337 337 338 338 336 327 318 321 331 336 338 339 339 341 340 342 345 344 344 345 346 348 350 353 355 356 358 0 2 5 7
13 0 351 337 3 47 56 5 344 2 19 17 358 17 34 3 6 10 340 4 38 241 221 31 358 306 238 243 209 194 203 194 193 215 226 245 260 269 269 269 270 268 274 277 278 286 288 292 299 311 329 339 339 337 335 337 340 343 345 344 336 321 320 331 332 330 330 330 330 329 329 332 334 335 335 335 336 336 339 343 348 351 353 356 359 0
346 310 355 22 359 34 78 66 356 333 3 9 359 40 81 64 23 350 319 336 308 260 273 351 351 264 275 279 202 193 195 195 207 218 225 236 247 262 266 268 272 269 271 271 269 277 283 293 305 317 333 338 335 335 338 343 346 348 350 352 348 335 331 337 334 328 325 324 323 322 321 321 322 324 326 328 327 326 326 328 333 340 344 346 349 353
84 303 1 57 316 13 67 91 207 261 0 8 358 89 107 128 114 215 250 281 294 287 300 332 352 224 282 272 196 196 192 195 217 225 233 243 245 257 264 268 273 270 269 270 271 277 285 301 314 323 333 334 333 335 342 347 348 348 347 348 348 343 339 339 337 333 329 326 323 320 318 318 316 313 314 318 321 321 318 317 319 324 328 332 337 342
116 236 241 97 239 85 85 271 257 101 77 334 62 81 54 196 149 143 214 223 268 296 294 313 241 235 254 224 196 196 207 214 231 239 245 256 259 266 273 274 270 267 272 273 275 277 287 309 324 329 333 331 332 337 342 345 345 344 342 342 342 340 339 338 337 336 333 330 327 325 322 321 319 314 309 309 312 315 314 312 313 316 317 318 322 328
115 246 249 68 11 69 121 154 43 69 87 4 46 44 259 194 132 114 276 282 16 317 279 241 274 291 330 267 223 196 234 239 234 242 245 250 265 277 281 285 279 274 275 272 269 271 286 312 324 332 332 327 330 337 340 343 343 340 338 337 337 337 338 338 338 336 335 334 333 332 331 330 327 323 317 312 310 309 309 307 308 312 315 314 313 314
139 269 274 127 81 317 148 86 52 26 53 89 100 278 295 63 81 103 56 341 29 289 263 221 261 289 328 297 260 211 242 245 233 240 245 252 266 272 275 281 283 283 278 273 274 275 293 313 321 329 326 320 326 336 338 340 340 337 334 333 333 335 336 337 337 337 337 338 338 338 338 337 335 334 330 325 321 317 313 309 308 309 311 313 313 310
110 60 284 193 138 237 241 77 37 345 10 74 174 266 76 78 344 68 96 345 357 294 283 253 268 278 239 240 245 223 232 235 236 239 243 256 260 261 273 279 281 286 282 278 280 280 299 311 316 323 320 314 323 334 336 338 336 333 330 328 327 328 329 329 329 331 333 335 337 337 337 336 336 335 334 331 329 326 322 318 314 310 309 310 309 308
108 104 268 241 175 188 142 83 72 309 343 6 17 21 54 132 180 179 138 167 162 265 282 295 315 289 231 211 210 223 228 225 232 238 238 247 248 250 265 273 278 280 275 280 284 285 299 306 312 318 315 312 322 328 331 334 333 330 326 323 322 321 320 320 321 325 328 330 332 333 333 333 333 331 330 330 328 325 322 320 317 313 311 309 306 307
54 102 227 277 304 114 155 184 160 175 218 20 53 35 357 0 96 51 257 166 138 158 236 293 303 278 247 196 203 230 232 218 220 231 237 241 247 256 259 262 271 271 269 279 282 290 300 305 311 314 311 309 317 321 323 327 329 327 321 318 316 315 315 317 321 324 325 326 327 327 327 327 327 326 325 324 324 322 321 321 319 317 315 311 308 311
76 115 185 295 326 349 259 236 170 168 171 154 139 144 172 156 97 61 303 269 123 147 183 207 284 278 259 180 208 234 226 213 216 227 242 251 257 262 260 256 261 262 266 272 278 289 295 303 310 309 305 307 313 314 316 320 322 322 318 313 309 308 314 319 322 322 321 320 320 320 320 320 320 320 319 318 318 317 318 319 318 317 316 314 313 315
141 99 106 278 276 247 284 301 132 130 124 123 125 127 134 130 116 127 238 266 286 226 195 164 252 271 263 187 209 223 208 213 224 233 252 264 262 260 258 258 258 257 261 265 274 282 288 301 305 301 298 307 310 311 314 316 318 319 314 307 302 306 315 319 319 317 315 314 313 313 313 314 315 315 314 314 312 311 313 315 315 315 316 316 316 316
97 76 58 293 294 316 350 358 13 30 62 71 330 120 134 174 136 148 179 194 280 250 218 107 250 265 278 236 217 228 227 244 252 248 255 268 275 267 257 266 273 270 274 275 274 277 288 299 297 290 294 307 308 311 315 314 316 317 311 301 298 308 313 313 314 312 309 307 306 306 307 307 309 309 308 307 307 309 311 312 313 314 315 315 315 315
68 88 79 12 342 342 349 355 346 342 25 185 250 194 168 144 110 116 146 92 309 233 190 182 258 264 261 203 236 283 270 261 252 242 250 268 280 277 264 273 281 281 285 285 277 279 292 296 287 280 294 304 307 312 315 314 315 315 308 298 302 310 310 309 310 308 305 303 301 302 303 304 304 304 302 302 304 307 308 309 309 310 312 313 312 312
144 164 114 98 89 297 298 297 300 303 288 243 217 184 185 153 136 161 146 101 246 232 175 182 250 274 272 225 230 249 240 251 260 261 271 275 270 269 274 282 284 285 289 287 282 287 295 290 275 281 299 305 309 313 313 313 314 314 306 299 306 310 308 308 308 305 302 301 301 303 304 304 303 301 300 301 303 305 305 305 306 306 306 308 308 307
102 163 164 153 175 201 222 238 253 295 281 269 255 220 214 195 160 139 120 174 211 215 226 225 236 271 282 278 271 268 262 273 285 294 297 291 272 269 278 283 286 289 289 288 288 292 294 282 272 290 301 303 307 310 310 310 312 313 309 307 310 310 308 307 305 304 303 304 305 306 305 304 302 300 301 302 303 303 303 303 302 301 301 301 301 302
93 279 230 186 210 224 225 240 256 276 266 262 262 252 234 201 160 157 201 222 189 66 276 253 215 242 273 282 285 286 292 297 298 300 298 292 280 278 282 285 288 292 291 289 290 290 285 270 279 294 299 301 305 307 307 308 311 313 312 310 310 309 307 307 307 307 308 308 307 305 303 302 301 300 301 302 303 303 302 302 301 300 300 301 301 301
114 248 235 189 238 249 246 258 260 253 257 259 257 256 251 221 187 202 230 233 200 215 258 264 251 249 267 279 281 285 294 294 293 295 292 289 285 284 289 291 292 293 293 289 287 280 264 262 285 294 299 303 306 307 307 309 311 313 312 309 309 308 307 310 311 311 309 307 304 302 302 302 300 300 302 302 303 303 302 302 303 303 305 306 305 303
130 241 224 148 277 269 254 257 257 249 258 265 258 251 249 239 219 226 244 241 225 236 252 266 274 271 270 273 280 287 289 280 283 288 285 285 287 286 288 290 292 294 293 288 279 262 249 268 284 292 299 305 307 308 309 310 311 311 309 308 307 307 308 311 311 309 307 304 302 301 302 302 302 303 305 304 303 303 303 304 306 309 310 309 307 305
110 260 102 82 326 283 258 252 252 239 245 265 269 262 253 252 246 246 253 247 235 246 254 261 271 273 271 269 274 279 274 268 276 280 281 282 283 285 288 290 293 294 292 283 263 249 256 273 286 295 301 303 303 302 305 308 311 310 307 306 305 304 307 310 309 308 305 302 302 302 303 304 306 306 304 303 304 304 304 306 310 312 312 311 309 307
145 237 26 68 358 278 275 320 309 298 276 268 272 268 256 248 240 237 240 223 208 233 255 264 265 265 271 278 270 261 266 278 280 280 285 284 281 284 288 290 292 292 287 270 249 253 269 281 292 300 302 300 295 295 302 308 309 307 306 304 303 305 308 309 309 307 304 303 302 304 306 307 307 305 303 304 305 304 305 309 312 312 312 310 308 305
146 150 141 105 226 271 300 359 332 331 316 278 259 243 229 226 229 239 245 228 212 217 241 253 251 257 273 298 291 283 284 285 283 280 279 283 287 289 288 288 289 286 273 252 252 269 283 291 297 300 298 294 288 291 301 306 306 305 304 302 303 308 310 309 309 306 303 302 304 307 309 308 305 303 303 303 302 302 307 311 311 310 308 305 304 301
133 126 158 168 201 263 286 323 335 330 296 270 241 181 177 198 220 232 245 241 224 212 224 243 256 267 277 279 278 282 284 279 278 274 270 280 291 293 291 291 288 279 263 259 272 285 292 296 298 298 296 290 286 292 301 305 305 303 300 300 305 308 310 310 308 303 300 302 308 310 309 306 304 302 299 298 302 308 312 311 309 307 305 304 302 300
142 127 156 171 186 255 304 8 354 270 240 245 254 200 187 200 210 231 255 252 235 230 240 252 261 265 268 271 272 274 276 274 272 273 278 284 284 284 287 287 282 274 271 283 291 293 294 296 298 301 297 289 287 295 302 306 306 301 297 302 307 308 310 309 304 299 300 307 310 310 307 305 303 299 297 303 312 314 312 310 308 306 305 304 303 300
149 146 157 162 184 269 354 75 211 272 280 285 289 230 184 174 157 265 280 262 232 224 235 246 254 259 264 271 271 269 274 279 275 270 274 275 272 269 270 270 272 276 284 293 294 293 295 297 300 302 298 291 292 299 305 308 306 299 299 305 308 308 310 307 298 297 306 311 311 309 307 306 300 295 302 314 316 313 311 310 308 306 305 305 303 300
142 145 149 189 202 195 218 227 251 314 312 303 296 161 166 178 152 145 283 275 236 204 217 234 248 256 258 260 264 270 285 291 287 272 254 251 253 251 247 253 272 287 294 297 293 292 295 299 303 302 295 290 295 302 308 310 305 300 304 307 307 309 308 301 295 302 310 312 310 308 308 304 296 296 310 316 313 310 310 308 306 304 305 304 301 299
127 160 167 190 221 129 143 277 307 327 298 268 239 235 195 150 134 120 338 291 261 195 202 222 236 248 252 252 257 273 320 304 293 279 215 218 234 238 248 266 283 291 297 298 295 295 297 301 304 301 292 290 298 307 312 310 304 303 306 306 307 308 304 295 295 305 312 311 308 308 309 302 294 303 314 314 310 309 308 306 305 303 303 302 298 296
57 38 122 169 242 137 139 231 239 240 256 238 217 220 145 135 124 98 3 295 264 191 195 210 224 238 244 243 240 217 4 296 292 292 219 206 229 240 264 286 294 297 299 299 297 297 299 303 303 297 291 296 305 311 314 308 303 305 306 306 307 306 300 293 296 307 311 310 309 309 306 298 298 310 315 311 309 309 307 305 303 301 301 301 297 295
65 28 95 196 233 193 163 225 236 237 251 235 191 167 157 144 101 72 318 283 245 188 193 197 213 232 232 229 225 200 208 255 278 293 302 294 284 279 282 292 297 299 300 301 302 303 304 306 300 291 295 306 310 313 313 307 304 306 306 304 304 303 299 295 299 308 310 308 309 308 302 300 308 316 314 310 309 308 306 304 302 301 302 302 299 298
190 226 175 212 234 204 188 236 268 262 249 225 172 157 158 119 74 88 258 257 201 190 200 195 213 233 229 225 226 225 234 243 261 284 300 310 306 298 295 295 294 296 300 303 307 309 308 306 300 296 304 309 311 312 310 307 307 308 306 304 301 299 299 300 302 307 309 309 309 304 300 308 316 317 313 310 310 308 307 306 303 302 304 303 301 300
187 203 194 192 220 204 194 224 279 282 262 176 140 153 155 124 136 225 237 222 163 191 208 209 223 235 237 238 237 243 257 261 264 278 291 296 295 296 299 300 300 302 304 307 309 309 308 306 306 306 307 309 311 310 308 308 310 310 307 304 299 299 303 302 302 305 309 309 305 300 305 314 317 316 314 312 311 310 309 309 308 305 305 302 301 301
173 182 217 202 186 162 145 183 258 277 249 129 123 139 182 192 217 227 233 221 194 198 209 221 229 232 237 246 244 244 256 265 267 273 280 280 281 285 289 295 302 305 307 310 310 309 308 307 307 307 308 309 310 307 306 309 310 310 308 302 300 305 306 301 302 308 310 305 299 301 312 316 316 317 316 314 314 313 311 310 309 306 304 302 302 302
185 183 207 222 188 145 162 206 218 240 186 153 148 168 203 212 224 228 227 246 238 215 214 234 241 229 224 240 251 250 254 263 267 269 273 274 271 270 277 287 298 302 306 307 305 305 308 308 307 309 309 308 308 306 306 308 310 309 306 303 306 310 307 304 309 311 305 299 301 311 317 318 318 319 318 316 316 314 311 310 309 306 305 304 302 301
209 190 185 220 207 184 212 225 217 152 167 182 199 218 206 215 232 239 246 266 270 250 237 249 256 240 220 228 247 251 250 260 266 267 269 270 263 254 265 281 293 299 302 301 296 298 305 308 308 309 307 306 308 306 304 308 311 307 303 306 311 311 308 312 314 309 303 304 312 317 318 318 320 320 318 318 317 313 310 310 309 307 306 305 303 301
224 171 139 232 242 271 268 249 231 233 221 210 226 248 247 240 243 239 245 257 260 256 251 247 253 250 223 213 234 250 252 259 270 270 263 260 257 255 266 281 293 297 297 293 291 296 306 308 307 306 304 304 307 306 304 308 310 306 305 309 312 311 312 316 315 311 312 314 314 315 318 320 320 320 319 318 317 314 311 309 308 306 305 303 303 301
244 142 173 239 247 292 272 251 224 233 239 222 226 247 254 253 249 242 241 246 251 256 254 246 249 251 225 207 227 253 260 260 268 273 267 250 250 259 269 279 289 295 294 290 291 299 308 309 307 306 303 303 306 306 304 308 311 310 309 310 311 312 313 313 312 314 314 310 308 314 320 321 320 319 318 319 319 317 313 310 307 305 303 303 305 303
170 146 195 234 224 227 259 269 270 266 262 249 238 246 249 250 250 245 242 246 252 258 256 247 239 232 222 219 225 245 261 262 261 271 274 259 247 257 268 277 286 294 295 292 293 301 308 307 306 305 302 302 306 306 303 307 312 312 311 310 311 312 310 307 310 313 309 303 306 316 321 321 320 319 318 319 319 317 314 311 309 305 303 304 305 302
117 160 191 226 243 254 270 278 283 287 281 264 243 240 244 249 253 253 252 252 253 255 257 249 230 217 224 233 226 237 260 265 263 268 272 264 256 264 274 284 292 295 295 295 298 303 306 305 304 303 300 301 306 306 304 307 311 312 311 311 311 311 307 307 311 310 303 301 310 319 322 322 321 320 319 319 319 318 314 309 306 305 303 303 302 298
142 215 201 94 273 268 272 273 269 278 285 279 261 244 238 239 248 255 258 255 248 245 246 245 238 230 231 236 234 239 259 267 268 265 259 254 261 272 281 292 297 296 296 300 304 304 305 305 304 300 298 301 305 304 303 306 310 311 310 310 311 310 307 308 310 305 299 304 314 320 323 322 319 318 320 321 320 319 316 311 307 303 300 301 303 301
204 223 185 188 243 256 267 274 265 240 264 278 285 280 245 210 221 240 245 245 243 239 234 235 242 243 240 239 236 236 250 266 268 263 257 256 261 270 282 291 294 296 301 305 305 303 304 305 303 298 298 302 304 303 303 305 308 310 310 310 311 310 308 309 306 298 296 307 317 320 321 318 314 317 323 324 322 319 317 314 313 311 304 301 305 307